Location: Ferchesar
(52.6477°N, 12.4298°E)
Time: 09:06:53
(UTC+01:00)

AO-73 - Pass Details

Date: 25 October 2021
Orbit: 581 x 661 km, 97.6° (Epoch: 28 November)

Event Time Altitude Azimuth Distance (km) Brightness Sun altitude
Rises 04:42:55 0° 27° (NNE) 2,823 ? -29.3°
Reaches altitude 10° 04:45:45 10° 48° (NE) 1,923 ? -28.9°
Maximum altitude 04:48:30 17° 89° (E) 1,524 ? -28.5°
Drops below altitude 10° 04:51:15 10° 131° (SE) 1,934 ? -28.1°
Sets 04:54:06 0° 152° (SSE) 2,845 ? -27.7°
